Weather History for Torrington, WY

Change the Weather History Date:

Wednesday, October 10, 2012

  Actual Average Record
Temperature  
Mean Temperature 47 °F 50 °F  
Max Temperature 70 °F 66 °F 84 °F (2003)
Min Temperature 24 °F 35 °F 16 °F (2009)
Degree Days  
Heating Degree Days 18 15  
Month to date heating degree days 196 129  
Since 1 July heating degree days 281 323  
Cooling Degree Days 0 0  
Month to date cooling degree days 0 0  
Year to date cooling degree days 1021 678  
Moisture  
Dew Point 29 °F    
Average Humidity 57    
Maximum Humidity 92    
Minimum Humidity 22    
Precipitation  
Precipitation 0.00 in 0.04 in 0.71 in (2005)
Month to date precipitation 0.28 0.38  
Year to date precipitation 6.31 12.71  
Sea Level Pressure  
Sea Level Pressure 30.05 in    
Wind  
Wind Speed 4 mph (SE)    
Max Wind Speed 9 mph    
Max Gust Speed 13 mph    
Visibility 9 miles    
Events      
T = Trace of Precipitation, MM = Missing Value Source: NWS Daily Summary

Daily Weather History Graph

Daily Weather History Graph

Search for Another Location

Airport:

Trip Planner

Search our weather history database for the weather conditions in past years. The results will help you decide how hot, cold, wet, or windy it might be!

Date:

Astronomy

Oct. 10, 2012 Rise Set
Actual Time 7:04 AM MDT 6:22 PM MDT
Civil Twilight 6:36 AM MDT 6:50 PM MDT
Nautical Twilight 6:03 AM MDT 7:22 PM MDT
Astronomical Twilight 5:31 AM MDT 7:54 PM MDT
Moon 1:37 AM MDT (10/10) 3:30 PM MDT (10/10)
Length of Visible Light 12h 14m
Length of Day
11h 18m
Waning Crescent, 26% of the Moon is Illuminated
Oct 10
Waning Crescent
Oct 15
New
Oct 21
First Quarter
Oct 29
Full
Nov 6
Last Quarter

Hourly Weather History & Observations

Time (MDT) Temp. Windchill Dew Point Humidity Pressure Visibility Wind Dir Wind Speed Gust Speed Precip Events Conditions
12:53 AM 30.0 °F 26.5 °F 26.1 °F 85% 30.22 in 10.0 mi ESE 3.5 mph - N/A   Unknown
1:53 AM 30.0 °F - 26.1 °F 85% 30.22 in 10.0 mi Calm Calm - N/A   Clear
2:53 AM 26.1 °F - 24.1 °F 92% 30.21 in 10.0 mi Calm Calm - N/A   Clear
3:53 AM 27.0 °F 23.0 °F 24.1 °F 89% 30.18 in 10.0 mi ENE 3.5 mph - N/A   Clear
4:53 AM 28.0 °F 24.2 °F 26.1 °F 92% 30.17 in 10.0 mi NW 3.5 mph - N/A   Clear
5:53 AM 26.1 °F 21.9 °F 24.1 °F 92% 30.17 in 10.0 mi North 3.5 mph - N/A   Clear
6:53 AM 24.1 °F 19.7 °F 21.9 °F 91% 30.19 in 10.0 mi South 3.5 mph - N/A   Clear
7:53 AM 27.0 °F - 25.0 °F 92% 30.19 in 10.0 mi Calm Calm - N/A   Clear
8:06 AM 28.4 °F - 26.6 °F 93% 30.12 in 8.0 mi Calm Calm - N/A   Scattered Clouds
8:14 AM 28.4 °F - 26.6 °F 93% 30.12 in 1.8 mi Calm Calm - N/A   Scattered Clouds
8:45 AM 33.8 °F 30.8 °F 30.2 °F 87% 30.11 in 1.0 mi North 3.5 mph - N/A   Mist
8:53 AM 33.1 °F - 30.0 °F 89% 30.16 in 1.8 mi Calm Calm - N/A   Clear
8:57 AM 33.8 °F - 30.2 °F 87% 30.11 in 3.0 mi Calm Calm - N/A   Clear
9:53 AM 39.9 °F 37.8 °F 32.0 °F 73% 30.14 in 10.0 mi SW 3.5 mph - N/A   Clear
10:53 AM 46.9 °F - 33.1 °F 59% 30.09 in 10.0 mi ESE 5.8 mph - N/A   Clear
11:53 AM 54.0 °F - 35.1 °F 49% 30.05 in 10.0 mi SE 6.9 mph - N/A   Clear
12:53 PM 61.0 °F - 37.0 °F 41% 29.99 in 10.0 mi SE 6.9 mph - N/A   Clear
1:53 PM 64.0 °F - 33.1 °F 31% 29.94 in 10.0 mi Calm Calm - N/A   Clear
2:53 PM 68.0 °F - 28.9 °F 23% 29.91 in 10.0 mi SSW 4.6 mph - N/A   Clear
3:53 PM 68.0 °F - 28.0 °F 22% 29.89 in 10.0 mi Calm Calm - N/A   Clear
4:53 PM 66.9 °F - 28.9 °F 24% 29.88 in 10.0 mi WSW 3.5 mph - N/A   Clear
5:53 PM 64.0 °F - 30.9 °F 29% 29.89 in 10.0 mi SSE 4.6 mph - N/A   Clear
6:53 PM 59.0 °F - 30.0 °F 33% 29.92 in 10.0 mi SE 5.8 mph - N/A   Clear
7:53 PM 52.0 °F - 32.0 °F 47% 29.94 in 10.0 mi ESE 8.1 mph - N/A   Clear
8:53 PM 50.0 °F - 32.0 °F 50% 29.93 in 10.0 mi SE 6.9 mph - N/A   Clear
9:53 PM 44.1 °F 39.0 °F 32.0 °F 63% 29.94 in 10.0 mi East 9.2 mph - N/A   Clear
10:53 PM 45.0 °F 42.6 °F 30.9 °F 58% 29.91 in 10.0 mi East 4.6 mph - N/A   Clear
11:53 PM 44.1 °F - 32.0 °F 63% 29.89 in 10.0 mi Calm Calm - N/A   Clear